Regional Weather Roundup
Issued by NWS

Home | Current Version | Previous Version | Graphics & Text | Print | Product List | Glossary On
Versions: 1 2 3 4 5 6 7 8 9 10 11 12 13 14 15 16 17 18 19 20 21 22 23 24 25 26 27 28 29 30 31 32 33 34 35 36 37 38 39 40 41 42 43 44 45 46 47 48 49 50
000
ASUS43 KMKX 240600
RWRWI

WISCONSIN REGIONAL WEATHER ROUNDUP
NATIONAL WEATHER SERVICE MILWAUKEE/SULLIVAN WI
100 AM CDT SUN JUL 24 2016

NOTE: "FAIR" INDICATES FEW OR NO CLOUDS BELOW 12,000 FEET WITH NO
SIGNIFICANT WEATHER AND/OR OBSTRUCTIONS TO VISIBILITY.

WIZ001-002-006>008-014>016-023>028-240700-
NORTHWEST WISCONSIN

CITY           SKY/WX    TMP DP  RH WIND       PRES   REMARKS
SUPERIOR ARPT  CLOUDY    62  61  95 NE3       29.80F
ASHLAND        CLOUDY    71  68  90 S7        29.80F
6HR MIN TEMP:  69; 6HR MAX TEMP:  73;

HAYWARD        CLOUDY    69  67  93 S6        29.82F
6HR MIN TEMP:  69; 6HR MAX TEMP:  74; 6HR PCP: TRACE;

SIREN          CLOUDY    72  68  88 S9G17     29.79F
CUMBERLAND     CLOUDY    68  66  94 SE7       29.83F
RICE LAKE      CLOUDY    69  67  93 CALM      29.85S
CHETEK         CLOUDY    69  69  99 SE5       29.83F
LADYSMITH      CLOUDY    69  67  94 CALM      29.87F
EAU CLAIRE     CLOUDY    70  69  97 SE6       29.82F
6HR MIN TEMP:  69; 6HR MAX TEMP:  73; 6HR PCP:  0.01;

MENOMONIE      CLOUDY    70  70  99 SE5       29.82F
NEW RICHMOND   CLOUDY    71  70  96 SE3       29.81S
OSCEOLA        CLOUDY    72  72 100 SE7       29.81F
$$

WIZ003>005-009-010-017-018-240700-
NORTH CENTRAL WISCONSIN

CITY           SKY/WX    TMP DP  RH WIND       PRES   REMARKS
MANITOWISH WTR CLOUDY    67  67 100 S3        29.89S
ARBOR VITAE    CLOUDY    69  68  95 CALM      29.89S
WOODRUFF       CLOUDY    69  68  95 CALM      29.89S
RHINELANDER    CLOUDY    70  67  90 SE3       29.90S
6HR MIN TEMP:  69; 6HR MAX TEMP:  74; 6HR PCP:  0.36;

EAGLE RIVER    CLOUDY    67  67 100 CALM      29.89F
LAND O LAKES   CLOUDY    68  67  97 S3        29.90F
PHILLIPS       CLOUDY    68  67  99 SE3       29.87F
TOMAHAWK       CLOUDY    67  65  96 CALM      29.89S
MEDFORD        CLOUDY    67  67 100 S3        29.87F
MERRILL        LGT RAIN  68  68 100 CALM      29.88S
$$

WIZ029-030-035-036-043>047-240700-
CENTRAL WISCONSIN

CITY           SKY/WX    TMP DP  RH WIND       PRES   REMARKS
WAUSAU         CLOUDY    70  68  93 S12       29.86S
6HR MIN TEMP:  70; 6HR MAX TEMP:  72; 6HR PCP:  0.03;

MOSINEE        CLOUDY    68  68 100 S9        29.89S
MARSHFIELD     CLOUDY    71  67  87 S7        29.85F
6HR MIN TEMP:  69; 6HR MAX TEMP:  71; 6HR PCP:  0.19;

STEVENS POINT  TSTM      68  68  99 SE3       29.89R
WAUPACA        LGT RAIN  73  73  98 E8        29.87F
WAUTOMA        CLOUDY    71  70  96 S7        29.86F THUNDER
6HR MIN TEMP:  71; 6HR MAX TEMP:  73; 6HR PCP:  0.01;

WISC RAPIDS    CLOUDY    72  67  84 N6        29.88R
6HR MIN TEMP:  70; 6HR MAX TEMP:  72; 6HR PCP: TRACE;

CAMP DOUGLAS   CLOUDY    72  70  93 S8        29.85R
6HR MIN TEMP:  70; 6HR MAX TEMP:  72; 6HR PCP:  0.01;

$$

WIZ011>013-019>022-031-037>040-048>050-240700-
NORTHEAST WISCONSIN

CITY           SKY/WX    TMP DP  RH WIND       PRES   REMARKS
ANTIGO         CLOUDY    69  68  98 CALM      29.90R
SHAWANO        CLOUDY    74  69  86 CALM      29.87F
OCONTO         CLOUDY   N/A N/A N/A CALM      29.86F
STURGEON BAY   CLOUDY    72  70  93 SE7       29.89F
6HR MIN TEMP:  72; 6HR MAX TEMP:  75;

GREEN BAY      LGT RAIN  74  73  97 S12       29.87S
6HR MIN TEMP:  74; 6HR MAX TEMP:  78; 6HR PCP:  0.13;

MANITOWOC      NOT AVBL
APPLETON       RAIN      72  70  94 CALM      29.89R
CLINTONVILLE   CLOUDY    72  70  94 S7        29.87S
OSHKOSH        LGT RAIN  72  68  87 S13       29.86S FOG
6HR MIN TEMP:  72; 6HR MAX TEMP:  75; 6HR PCP:  0.10;

$$

WIZ032>034-041-042-053>061-240700-
SOUTHWEST WISCONSIN

CITY           SKY/WX    TMP DP  RH WIND       PRES   REMARKS
LA CROSSE      MOCLDY    74  69  85 SE9       29.82F
6HR MIN TEMP:  73; 6HR MAX TEMP:  75;

SPARTA         CLOUDY    71  69  92 W3        29.85S
VIROQUA        CLEAR     70  70 100 S10       29.87S
BOSCOBEL       CLOUDY    72  70  93 W3        29.86S
6HR MIN TEMP:  72; 6HR MAX TEMP:  74; 6HR PCP:  0.01;

PRAIRIE DU CHI PTCLDY    72  69  92 E6        29.85S
PLATTEVILLE    MOCLDY    71  71 100 S9        29.89S
$$

WIZ056-057-062-063-064-067-068-240700-
SOUTH CENTRAL WISCONSIN

CITY           SKY/WX    TMP DP  RH WIND       PRES   REMARKS
REEDSBURG      CLOUDY    72  71  97 S5        29.87R
BARABOO/DELLS  CLOUDY    71  68  92 S10       29.87S
LONE ROCK      NOT AVBL
MINERAL POINT  CLOUDY    72  72 100 SE12      29.89S
MADISON        CLOUDY    72  70  93 S12       29.88F
6HR MIN TEMP:  71; 6HR MAX TEMP:  72; 6HR PCP:  0.58;

MIDDLETON      CLOUDY    72  72  98 S3        29.90R
WATERTOWN      CLOUDY    71  71 100 S12G17    29.91S
MONROE         CLOUDY    70  68  94 S12       29.91S
JANESVILLE     CLOUDY    70  70 100 S13       29.91F
$$

WIZ051-052-058>065-066-070>072-240700-
SOUTHEAST WISCONSIN

CITY           SKY/WX    TMP DP  RH WIND       PRES   REMARKS
MILWAUKEE      TSTM      74  68  81 NW6       29.94R
6HR MIN TEMP:  73; 6HR MAX TEMP:  76; 6HR PCP:  0.23;

WAUKESHA       HVY RAIN  68  68 100 S10       29.95R
MILWAUKEE/TIMM CLOUDY    70  66  88 SW6       29.95R
RACINE         CLOUDY    73  66  78 S14G22    29.93F
6HR MIN TEMP:  71; 6HR MAX TEMP:  74; 6HR PCP:  0.30;

BURLINGTON     CLOUDY    71  69  95 S6        29.92F
KENOSHA        CLOUDY    72  68  87 S15       29.93F
6HR MIN TEMP:  71; 6HR MAX TEMP:  74; 6HR PCP:  0.31;

FOND DU LAC    MOCLDY    72  69  90 S16       29.87F
6HR MIN TEMP:  72; 6HR MAX TEMP:  76; 6HR PCP:  0.14;

SHEBOYGAN      LGT RAIN  71  67  87 S10       29.89F
6HR MIN TEMP:  71; 6HR MAX TEMP:  77; 6HR PCP:  0.10;

WEST BEND      CLOUDY    70  68  94 SE5       29.92R
JUNEAU         CLOUDY    71  69  95 S10G17    29.91F
$$

LSZ147-162-240700-
LAKE SUPERIOR

STATION/POSITION TIME  TEMP    WIND        PRES    WAVE
                       AIR SEA DIR/SP/G            HT/PER
                 (UTC) (F)     (DEG/KT/KT) (MB)    (FT/S)
W MID LAKE BUOY  0450   60 57  130/  6/  8 1008.9F   1/ 4
DEVILS ISLAND    0500   64     160/  4/  5 1009.9R
PORT WING        0500   62      30/  9/ 11 1009.8S
SAXON HARBOR     0500   73     190/  3/  8 1009.5
$$

LMZ867-665-643>646-240700-
LAKE MICHIGAN

STATION/POSITION TIME  TEMP    WIND        PRES    WAVE
                       AIR SEA DIR/SP/G            HT/PER
                 (UTC) (F)     (DEG/KT/KT) (MB)    (FT/S)
CHAMBERS ISLAND  0500   70     170/  1/  4 1012.2
S GREEN BAY BUOY 0500   75 75  170/  6/  6   N/A
N MID LAKE BUOY  0450   73 70  150/ 10/ 10 1011.3F   0
NORTHPORT PIER   0500   72     300/  1/  3 1012.9R
KEWAUNEE LAKESHO 0500   61     170/  6/  7 1011.7F
SHEBOYGAN LAKESH 0500   69     190/ 23/ 26 1012.5F
PORT WASHINGTON  0500   63     170/ 30     1013.2F
MILWAUKEE LAKESH 0510   71     200/ 11/ 11   N/A
S MID LAKE BUOY  0450   74 73  180/ 10/ 12 1013.3F   1/ 3
KENOSHA   LAKESH 0500   70     190/ 10/ 14 1013.9F
$$

TC  - TEMPERATURE IN CELSIUS
VSB - VISIBILITY IN STATUTE MILES
WCI - WIND CHILL INDEX
HX  - HEAT INDEX





USA.gov is the U.S. government's official web portal to all federal, state and local government web resources and services.